MST,Max TemperatureF,Mean TemperatureF,Min TemperatureF,Max Dew PointF,MeanDew PointF,Min DewpointF,Max Humidity, Mean Humidity, Min Humidity, Max Sea Level PressureIn, Mean Sea Level PressureIn, Min Sea Level PressureIn, Max VisibilityMiles, Mean VisibilityMiles, Min VisibilityMiles, Max Wind SpeedMPH, Mean Wind SpeedMPH, Max Gust SpeedMPH,PrecipitationIn, CloudCover, Events, WindDirDegrees
2012-12-1,57,48,38,28,22,18,53,39,24,29.92,29.86,29.74,10,10,10,35,15,41,0.00,1,,267
2012-12-2,60,44,28,21,15,3,63,37,10,29.96,29.76,29.53,10,10,10,25,10,32,0.00,0,,247
2012-12-3,52,41,30,30,8,-7,62,38,14,30.22,29.97,29.54,10,10,10,30,15,44,0.00,0,,296
2012-12-4,53,40,27,17,8,0,33,23,13,30.34,30.20,30.09,10,10,10,33,14,44,0.00,1,,241
2012-12-5,61,50,38,27,22,14,42,31,19,30.10,29.87,29.73,10,10,10,36,14,46,0.00,0,,257
2012-12-6,44,35,26,29,25,19,85,63,41,30.03,29.94,29.81,10,10,10,23,12,28,0.00,3,,178
2012-12-7,43,34,25,22,14,5,75,50,24,29.98,29.86,29.79,10,10,10,29,13,37,0.00,3,,278
2012-12-8,40,28,15,25,16,-1,85,61,37,29.98,29.79,29.66,10,8,0,35,18,45,0.02,6,Fog-Snow,288
2012-12-9,17,10,2,4,-1,-5,69,60,51,30.37,30.25,30.02,10,10,10,29,14,38,0.00,0,,320
2012-12-10,33,20,6,18,10,-2,84,58,32,30.15,29.97,29.83,10,8,2,38,20,51,0.01,7,Snow,320
2012-12-11,37,23,9,12,9,3,84,58,32,30.08,29.94,29.76,10,10,10,36,16,45,T,1,,257
2012-12-12,51,39,26,13,11,7,46,32,18,29.86,29.76,29.67,10,10,10,39,18,47,0.00,0,,247
2012-12-13,44,34,23,13,10,8,55,39,22,30.04,29.97,29.84,10,10,10,15,5,31,0.00,0,,242
2012-12-14,46,35,24,13,10,7,50,36,22,29.88,29.68,29.52,10,10,10,16,8,20,0.00,3,,291
2012-12-15,41,32,22,28,23,14,92,65,38,29.73,29.69,29.56,10,10,10,25,8,32,0.00,5,,298
2012-12-16,35,28,20,25,14,3,100,64,28,29.87,29.74,29.65,10,9,0,39,14,47,0.00,4,,258
2012-12-17,44,34,23,27,16,8,59,46,33,29.75,29.62,29.51,10,9,1,49,22,60,0.01,2,Snow,272
2012-12-18,32,26,19,19,14,8,91,65,39,29.84,29.74,29.63,10,6,0,23,13,29,0.21,6,Fog-Snow,321
2012-12-19,20,10,0,16,8,-9,92,71,50,30.31,29.89,29.65,10,4,0,24,16,32,0.05,6,Fog-Snow,357
2012-12-20,37,21,4,12,5,-2,60,46,31,30.34,30.27,30.07,10,9,2,44,20,52,0.00,0,Snow,274
2012-12-21,49,36,22,12,7,1,46,33,19,30.23,30.13,30.02,10,10,10,36,12,43,0.00,0,,259
2012-12-22,51,36,20,8,1,-4,42,27,11,30.13,30.02,29.87,10,10,10,17,7,21,0.00,0,,253
2012-12-23,42,30,17,15,10,-5,57,36,15,30.00,29.92,29.76,10,10,10,30,10,43,0.00,0,,274
2012-12-24,33,22,11,19,14,8,91,68,45,30.06,29.86,29.71,10,6,1,15,7,17,0.15,7,Snow,135
2012-12-25,12,4,-4,7,1,-7,92,79,66,30.38,30.16,29.91,10,5,1,14,7,16,0.05,6,Snow,354
2012-12-26,29,14,-2,16,7,-6,92,71,50,30.19,29.91,29.57,10,8,4,14,4,14,T,4,Snow,222
2012-12-27,21,14,7,13,7,2,88,72,56,30.01,29.87,29.68,10,10,10,23,10,33,0.00,4,,316
2012-12-28,24,17,10,11,6,0,70,60,49,30.23,30.11,30.01,10,10,10,25,15,32,0.00,3,,309
2012-12-29,30,16,2,2,-3,-8,69,48,26,30.33,30.19,29.87,10,10,10,15,6,17,0.00,0,,245
2012-12-30,33,21,9,12,4,-5,73,50,27,30.14,30.05,29.94,10,10,10,24,8,31,0.00,1,,309
2012-12-31,22,12,2,11,7,-2,88,75,62,30.21,30.11,29.91,10,10,9,13,4,14,0.00,4,,261